Weather History for Mitchell, SD

Change the Weather History Date:

Tuesday, September 10, 2013

  Actual Average Record
Temperature  
Mean Temperature 75 °F 65 °F  
Max Temperature 83 °F 78 °F 104 °F (1931)
Min Temperature 66 °F 52 °F 32 °F (1940)
Degree Days  
Heating Degree Days 0 3  
Month to date heating degree days 1 22  
Since 1 July heating degree days 24 39  
Cooling Degree Days 10 3  
Month to date cooling degree days 102 42  
Year to date cooling degree days 883 787  
Growing Degree Days 24 (Base 50)    
Moisture  
Dew Point 65 °F    
Average Humidity 76    
Maximum Humidity 100    
Minimum Humidity 51    
Precipitation  
Precipitation 0.01 in 0.07 in 2.69 in (2003)
Month to date precipitation 0.14 0.80  
Year to date precipitation 18.63 17.15  
Snow  
Snow 0.00 in - 0.00 in ()
Month to date snowfall 0.0  
Since 1 July snowfall 0.0  
Since 1 September snowfall 0.0  
Snow Depth 0.00 in    
Sea Level Pressure  
Sea Level Pressure 29.95 in    
Wind  
Wind Speed 5 mph (West)    
Max Wind Speed 10 mph    
Max Gust Speed 14 mph    
Visibility 10 miles    
Events Rain , Thunderstorm    
T = Trace of Precipitation, MM = Missing Value Source: NWS Daily Summary

Daily Weather History Graph

Daily Weather History Graph

Search for Another Location

Airport:

Trip Planner

Search our weather history database for the weather conditions in past years. The results will help you decide how hot, cold, wet, or windy it might be!

Date:

Astronomy

Sep. 10, 2013 Rise Set
Actual Time 7:06 AM CDT 7:51 PM CDT
Civil Twilight 6:37 AM CDT 8:20 PM CDT
Nautical Twilight 6:02 AM CDT 8:54 PM CDT
Astronomical Twilight 5:26 AM CDT 9:30 PM CDT
Moon 12:44 PM CDT (9/10) 10:43 PM CDT (9/10)
Length of Visible Light 13h 43m
Length of Day
12h 44m
Waxing Crescent, 28% of the Moon is Illuminated
Sep 10
Waxing Crescent
Sep 12
First Quarter
Sep 19
Full
Sep 26
Last Quarter
Oct 4
New

Hourly Weather History & Observations

Time (CDT) Temp. Heat Index Dew Point Humidity Pressure Visibility Wind Dir Wind Speed Gust Speed Precip Events Conditions
12:26 AM 69.8 °F - 68.0 °F 94% 29.86 in 10.0 mi North 5.8 mph - 0.03 in Rain , Thunderstorm Light Thunderstorms and Rain
12:46 AM 69.8 °F - 66.2 °F 88% 29.89 in 10.0 mi West 6.9 mph - 0.03 in Rain Light Rain
12:53 AM 70.0 °F - 66.9 °F 90% 29.85 in 10.0 mi WNW 4.6 mph - 0.03 in   Overcast
1:53 AM 69.1 °F - 66.9 °F 93% 29.87 in 10.0 mi Calm Calm - 0.00 in   Overcast
2:53 AM 69.1 °F - 68.0 °F 96% 29.88 in 10.0 mi West 4.6 mph - 0.01 in   Mostly Cloudy
3:53 AM 69.1 °F - 66.0 °F 90% 29.91 in 10.0 mi NW 9.2 mph - 0.00 in   Overcast
4:53 AM 68.0 °F - 66.0 °F 93% 29.89 in 10.0 mi Calm Calm - 0.00 in   Mostly Cloudy
5:53 AM 68.0 °F - 66.0 °F 93% 29.91 in 10.0 mi WSW 3.5 mph - N/A   Mostly Cloudy
6:53 AM 66.9 °F - 66.0 °F 97% 29.90 in 10.0 mi WNW 4.6 mph - 0.00 in   Scattered Clouds
7:53 AM 66.0 °F - 64.9 °F 96% 29.92 in 10.0 mi NW 4.6 mph - N/A   Mostly Cloudy
8:53 AM 70.0 °F - 64.9 °F 84% 29.94 in 10.0 mi WNW 5.8 mph - N/A   Clear
9:53 AM 72.0 °F - 64.9 °F 78% 29.96 in 10.0 mi WNW 5.8 mph - N/A   Clear
10:53 AM 73.9 °F - 66.0 °F 76% 29.98 in 10.0 mi WSW 3.5 mph - N/A   Clear
11:53 AM 75.0 °F - 66.0 °F 73% 29.99 in 10.0 mi NW 4.6 mph - N/A   Clear
12:53 PM 81.0 °F 82.5 °F 64.0 °F 56% 29.98 in 10.0 mi WNW 8.1 mph - N/A   Clear
1:53 PM 82.0 °F 83.0 °F 62.1 °F 51% 29.97 in 10.0 mi WNW 8.1 mph - N/A   Clear
2:53 PM 81.0 °F 81.7 °F 61.0 °F 50% 29.97 in 10.0 mi WNW 6.9 mph - N/A   Clear
3:53 PM 81.0 °F 82.2 °F 63.0 °F 54% 29.96 in 10.0 mi SW 4.6 mph - N/A   Clear
4:53 PM 80.1 °F 81.1 °F 61.0 °F 52% 29.97 in 10.0 mi SW 9.2 mph - N/A   Clear
5:53 PM 78.1 °F - 63.0 °F 60% 29.97 in 10.0 mi SW 5.8 mph - N/A   Clear
6:53 PM 75.9 °F - 64.0 °F 67% 29.98 in 10.0 mi SW 8.1 mph - N/A   Clear
7:53 PM 75.0 °F - 64.9 °F 71% 29.99 in 10.0 mi WSW 8.1 mph - N/A   Clear
8:53 PM 72.0 °F - 64.9 °F 78% 30.00 in 10.0 mi West 4.6 mph - N/A   Clear
9:53 PM 71.1 °F - 64.9 °F 81% 30.01 in 10.0 mi WNW 3.5 mph - N/A   Clear
10:53 PM 71.1 °F - 64.0 °F 78% 30.03 in 10.0 mi West 3.5 mph - N/A   Clear
11:53 PM 68.0 °F - 63.0 °F 84% 30.05 in 10.0 mi West 4.6 mph - N/A   Clear